Preview of NWS' New Version of Forecast
This preview is not operational and should not be used for support decisions.
Latest weather observations around

Burlington/Mount Vernon, Skagit Regional Airport (KBVS)

Using English Units (Switch to International System of Units)
Date/ Time (PDT) Wind (mph) Vis. (mi) Weather Sky Cond. Temp (°F) Rel. Humidity Wind Chill (°F) Heat Index (°F) Pressure Precip. (in)
Air Dwpt 6 hour Altimeter (inHg) Sea level (inHg) 1 hr 3 hr 6 hr
Max Min
Notice The following observation data may not be complete
Jun 21 16:35   10 Clear CLR          %              
Jun 21 16:15 S 9 10 Clear CLR 70 57     64%     30.11        
Jun 21 15:55   10 Mostly Clear FEW029 70 55     60%     30.11        
Jun 21 15:35 SSW 13 10 Partly Cloudy SCT030 70 57     64%     30.12        
Jun 21 15:15   10 Partly Cloudy SCT030 70 55     60%     30.12        
Jun 21 14:55   10 Mostly Cloudy BKN030 70 55     60%     30.12        
Jun 21 14:35   10 Mostly Cloudy BKN030 BKN035 70 57     64%     30.13        
Jun 21 14:15 S 11 10 Mostly Cloudy BKN030 BKN035 68 55     64%     30.13        
Jun 21 13:55 S 8 10 Cloudy OVC029 68 55     64%     30.13        
Jun 21 13:35   10 Cloudy OVC030 68 55     64%     30.13        
Jun 21 13:15   10 Cloudy OVC029 68 55     64%     30.12        
Jun 21 12:50 S 11 10 Cloudy FEW021 OVC030 66 55     68%     30.12        
Jun 21 12:35 S 11 10 Clear   64 55     73%     30.12        
Notice The following observation data may not be complete
Jun 21 12:15 SSW 11   Clear            %     30.12        
Jun 21 11:55 S 9 10 Cloudy FEW016 OVC026 63 55     77%     30.12        
Jun 21 11:35 SSW 11 10 Cloudy FEW016 OVC025 63 55     77%     30.12        
Jun 21 11:15 SSW 10 10 Cloudy OVC025 63 55     77%     30.12        
Jun 21 10:55 S 6 10 Cloudy OVC024 63 55     77%     30.12        
Jun 21 10:35 S 10 10 Cloudy OVC022 63 55     77%     30.11        
Jun 21 10:15 S 10 10 Cloudy OVC021 63 55     77%     30.11        
Jun 21 09:55 S 10 10 Cloudy OVC020 63 55     77%     30.11        
Jun 21 09:35 S 10 10 Cloudy OVC020 63 55     77%     30.1        
Jun 21 09:15 S 10 10 Cloudy BKN020 OVC026 63 55     77%     30.1        
Jun 21 08:55 S 10 10 Cloudy BKN018 OVC025 61 55     82%     30.1        
Jun 21 08:35 S 8 10 Cloudy OVC020 61 55     82%     30.1        
Jun 21 08:15   10 Cloudy OVC020 61 54     77%     30.09        
Jun 21 07:55 SSE 10 10 Cloudy OVC016 61 55     82%     30.08        
Jun 21 07:35 S 6 10 Cloudy OVC017 59 55     88%     30.08        
Jun 21 07:15 S 7 10 Cloudy OVC016 59 55     88%     30.07        
Jun 21 06:55 Calm 10 Cloudy OVC013 57 55     94%     30.07        
Jun 21 06:35 Calm 10 Cloudy OVC012 57 54     88%     30.07        
Jun 21 06:15 Calm 10 Cloudy OVC011 57 54     88%     30.07        
Jun 21 05:55 Calm 10 Cloudy OVC011 57 54     88%     30.06        
Jun 21 05:35 Calm 10 Cloudy OVC010 57 54     88%     30.06        
Jun 21 05:15 Calm 10 Cloudy OVC009 57 54     88%     30.06        
Jun 21 04:55 SSW 5 10 Cloudy OVC009 57 54     88%     30.06        
Jun 21 04:35 S 5 10 Cloudy OVC010 57 54     88%     30.05        
Jun 21 04:15 S 6 10 Cloudy OVC010 57 54     88%     30.04        
Jun 21 03:55 SSW 8 10 Cloudy OVC010 57 54     88%     30.04        
Jun 21 03:35 SSW 5 10 Cloudy OVC010 57 54     88%     30.03        
Jun 21 03:15 S 7   Cloudy OVC011 57 54     88%     30.03        
Jun 21 02:55 Calm 10 Mostly Cloudy BKN014 BKN026 55 54     94%     30.02        
Jun 21 02:35 ESE 5 10 Mostly Clear FEW017 FEW026 FEW031 55 54     94%     30.02        
Jun 21 02:15 SSE 5 10 Clear CLR 55 54     94%     30.01        
Jun 21 01:55 SE 7 10 Clear CLR 55 54     94%     30        
Jun 21 01:35   10 Clear CLR 57 52     82%     29.99        
Jun 21 01:15 S 10 10 Clear CLR 57 52     82%     29.98        
Jun 21 00:55 S 10 10 Clear CLR 57 52     82%     29.97        
Jun 21 00:35 S 7 10 Clear CLR 55 54     94%     29.96        
Jun 21 00:15 S 5 10 Clear CLR 55 54     94%     29.95        
Jun 20 23:55 SSE 8 10 Clear CLR 57 54     88%     29.94        
Jun 20 23:35 S 7 10 Clear CLR 57 54     88%     29.94        
Jun 20 23:15 S 5 10 Clear CLR 59 54     82%     29.93        
Jun 20 22:55 S 6 10 Clear CLR 59 54     82%     29.93        
Jun 20 22:35 S 3 10 Clear CLR 61 54     77%     29.93        
Jun 20 22:15 S 3 10 Clear CLR 63 54     72%     29.93        
Jun 20 21:55 SSW 7 10 Clear CLR 64 52     64%     29.92        
Jun 20 21:35 SSW 6 10 Clear CLR 64 54     68%     29.91        
Jun 20 21:15 SW 3 10 Clear CLR 66 54     64%     29.9        
Jun 20 20:55 SSW 6 10 Clear CLR 66 54     64%     29.9        
Jun 20 20:35 Calm 10 Clear CLR 68 54     60%     29.91        
Jun 20 20:15 WSW 5 10 Clear CLR 72 54     53%   71 29.91        
Jun 20 19:55 WSW 5 9 Clear CLR 75 55     50%   75 29.91        
Jun 20 19:35 Calm 10 Clear CLR 77 57     50%   77 29.9        
Jun 20 19:15 W 5 10 Clear CLR 79 57     48%   79 29.9        
Jun 20 18:55 WNW 5 9 Clear CLR 77 57     50%   77 29.9        
Jun 20 18:35 SSW 3 9 Clear CLR 79 57     48%   79 29.9        
Jun 20 18:15 WSW 5 9 Clear CLR 79 57     48%   79 29.9        
Jun 20 17:55 3 8 Clear CLR 81 61     51%   81 29.9        
Jun 20 17:35 WNW 5 9 Clear CLR 81 59     48%   81 29.89        
Jun 20 17:15 WNW 5 9 Clear CLR 81 59     48%   81 29.89        
Jun 20 16:55 NW 5 9 Clear CLR 79 59     51%   79 29.9        
Jun 20 16:35 WNW 6 9 Clear CLR 79 61     54%   79 29.9        
Jun 20 16:15 WNW 5 9 Clear CLR 77 59     54%   77 29.91        
Jun 20 15:55 NW 6 9 Clear CLR 75 59     57%   75 29.91        
Jun 20 15:35 WNW 9 10 Clear CLR 77 57     50%   77 29.92        
Jun 20 15:15 WNW 6 10 Clear CLR 79 59     51%   79 29.91        
Jun 20 14:55 WNW 7 9 Clear CLR 79 59     51%   79 29.92        
Jun 20 14:35 7 10 Clear CLR 79 59     51%   79 29.92        
Jun 20 14:15 WNW 8 9 Clear CLR 79 59     51%   79 29.93        
Jun 20 13:55 WNW 7 9 Clear CLR 79 59     51%   79 29.93        
Jun 20 13:35 WNW 8 9 Clear CLR 77 57     50%   77 29.94        
Jun 20 13:15 WNW 9 10 Clear CLR 77 55     47%   77 29.94        
Jun 20 12:55 WNW 7 9 Clear CLR 77 55     47%   77 29.94        
Jun 20 12:35 WNW 8 9 Clear CLR 77 55     47%   77 29.95        
Jun 20 12:15 NW 8 10 Clear CLR 77 55     47%   77 29.95        
Jun 20 11:55 WNW 6 10 Clear CLR 77 57     50%   77 29.95        
Jun 20 11:30 NW 6 7 Clear CLR 75 57     54%   75 29.95        
Jun 20 11:15 WNW 5 9 Clear CLR 73 57     57%   73 29.96        
Jun 20 10:55 W 6 10 Clear CLR 73 59     61%   73 29.96        
Jun 20 10:35 WNW 6 10 Clear CLR 73 59     61%   73 29.96        
Jun 20 10:15 WNW 5 10 Clear CLR 73 57     57%   73 29.96        
Jun 20 09:55 Calm 9 Clear CLR 72 57     60%   71 29.97        
Jun 20 09:35 Calm 10 Clear CLR 70 57     64%     29.97        
Jun 20 09:15 Calm 10 Mostly Clear FEW120 68 57     68%     29.97        
Jun 20 08:55 Calm 9 Mostly Clear FEW120 66 57     73%     29.98        
Jun 20 08:35 Calm 10 Clear CLR 66 57     73%     29.98        
Jun 20 08:15 Calm 10 Mostly Clear FEW120 64 57     77%     29.98        
Jun 20 07:55 Calm 10 Partly Cloudy SCT120 63 57     83%     29.98        
Jun 20 07:35 Calm 10 Clear CLR 59 55     88%     29.98        
Jun 20 07:15 Calm 10 Clear CLR 59 55     88%     29.98        
Jun 20 06:55 Calm 10 Clear CLR 57 55     94%     29.98        
Jun 20 06:35 Calm 10 Clear CLR 55 54     94%     29.98        
Jun 20 06:15 Calm 10 Clear CLR 55 54     94%     29.97        
Jun 20 05:55 NW 3 10 Clear CLR 55 54     94%     29.97        
Jun 20 05:35 Calm 10 Clear CLR 55 54     94%     29.98        
Jun 20 05:15 Calm 10 Clear CLR 55 54     94%     29.97        
Jun 20 04:55 Calm 10 Clear CLR 55 54     94%     29.97        
Jun 20 04:35 WNW 6 10 Clear CLR 55 54     94%     29.98        
Jun 20 04:15 Calm 10 Clear CLR 55 54     94%     29.98        
Jun 20 03:55 WNW 5 10 Clear CLR 54 54     100%     29.98        
Jun 20 03:35 Calm 10 Clear CLR 54 54     100%     29.98        
Jun 20 03:15 WNW 7 10 Clear CLR 55 54     94%     29.99        
Jun 20 02:55 WNW 6 10 Clear CLR 55 54     94%     29.99        
Jun 20 02:35 WNW 3 10 Clear CLR 57 55     94%     29.99        
Jun 20 02:15 Calm 10 Clear CLR 57 55     94%     29.99        
Jun 20 01:55 Calm 10 Clear CLR 59 55     88%     30        
Jun 20 01:35 WNW 3 10 Clear CLR 59 55     88%     30        
Jun 20 01:15 N 3 10 Clear CLR 59 55     88%     30.01        
Jun 20 00:55 WNW 3 10 Clear CLR 57 55     94%     30.01        
Jun 20 00:35 Calm 10 Clear CLR 59 55     88%     30.01        
Jun 20 00:15 Calm 10 Mostly Clear FEW110 59 55     88%     30.02        
Jun 19 23:55 Calm 10 Mostly Clear FEW110 61 55     82%     30.02        
Jun 19 23:35 Calm 10 Clear   59 55     88%     30.02        
Jun 19 23:15 Calm 10 Clear   59 55     88%     30.02        
Jun 19 22:55 Calm 10 Clear   59 55     88%     30.02        
Jun 19 22:35 Calm 10 Clear CLR 61 55     82%     30.02        
Jun 19 22:15 Calm 10 Clear CLR 61 55     82%     30.02        
Jun 19 21:55 Calm 10 Clear CLR 61 55     82%     30.01        
Jun 19 21:35 Calm 10 Clear CLR 63 55     77%     30.01        
Jun 19 21:15 Calm 10 Clear CLR 64 55     73%     30        
Jun 19 20:55 Calm 10 Clear CLR 64 55     73%     30        
Jun 19 20:35 SW 3 10 Clear CLR 66 57     73%     30        
Jun 19 20:15 SW 3 10 Clear CLR 68 57     68%     30        
Jun 19 19:55 Calm 10 Clear CLR 70 57     64%     30        
Jun 19 19:35 SSW 7 10 Clear CLR 72 59     65%   71 29.99        
Jun 19 19:15 Calm 10 Clear CLR 73 57     57%   73 29.99        
Jun 19 18:55 SSW 5 9 Clear CLR 73 55     53%   73 29.99        
Jun 19 18:35 SSW 5 10 Clear CLR 73 57     57%   73 29.98        
Jun 19 18:15 SSW 6 10 Clear CLR 73 57     57%   73 29.99        
Jun 19 17:55 SW 8 8 Clear CLR 73 55     53%   73 29.99        
Jun 19 17:35 SW 7 10 Clear CLR 75 55     50%   75 29.99        
Jun 19 17:15 SW 8 10 Clear CLR 75 55     50%   75 30        
Jun 19 16:55 5 9 Clear CLR 77 54     44%   76 30        
Jun 19 16:35 WSW 7 10 Clear CLR 75 55     50%   75 30.01        
Jun 19 16:15 SSW 8 9 Clear CLR 77 55     47%   77 30.01        
Jun 19 15:55 6 9 Clear CLR 77 59     54%   77 30.02        
Jun 19 15:35 WNW 7 9 Clear CLR 77 59     54%   77 30.02        
Jun 19 15:15 7 9 Clear CLR 77 61     57%   77 30.02        
Jun 19 14:55 SW 5 9 Clear CLR 77 61     57%   77 30.02        
Jun 19 14:30 SSW 7 9 Clear CLR 77 59     54%   77 30.03        
Jun 19 14:15 SSW 8 9 Clear CLR 77 59     54%   77 30.03        
Jun 19 13:55 SSW 7 9 Clear CLR 77 59     54%   77 30.03        
Jun 19 13:35 SSW 5 9 Clear CLR 77 59     54%   77 30.03        
Jun 19 13:15 Calm 9 Clear CLR 75 59     57%   75 30.03        
Jun 19 12:55 S 7 9 Clear CLR 75 59     57%   75 30.04        
Jun 19 12:35 Calm 9 Clear CLR 73 59     61%   73 30.04        
Jun 19 12:15 SSW 5 9 Clear CLR 73 59     61%   73 30.04        
Jun 19 11:55 3 9 Clear CLR 73 59     61%   73 30.05        
Jun 19 11:35 5 9 Clear CLR 72 59     65%   71 30.05        
Jun 19 11:15 SSW 8 9 Clear CLR 72 59     65%   71 30.06        
Jun 19 10:55 SSW 7 8 Clear CLR 70 59     69%     30.06        
Jun 19 10:35 SW 7 9 Clear CLR 70 57     64%     30.06        
Jun 19 10:15 SSW 9 10 Clear CLR 70 57     64%     30.06        
Jun 19 09:55 S 7 9 Clear CLR 68 57     68%     30.06        
Jun 19 09:35 6 9 Clear CLR 68 57     68%     30.07        
Jun 19 09:15 SSW 5 9 Clear CLR 66 59     78%     30.07        
Jun 19 08:55 SSW 5 10 Clear CLR 64 57     77%     30.07        
Jun 19 08:35 SSW 5 9 Clear CLR 64 57     77%     30.07        
Jun 19 08:15 SSW 5 9 Clear CLR 63 57     83%     30.07        
Jun 19 07:50 S 5 9 Clear CLR 63 57     83%     30.07        
Jun 19 07:35 SSW 6 10 Clear CLR 61 57     88%     30.07        
Jun 19 07:15 Calm 9 Clear CLR 61 55     82%     30.07        
Jun 19 06:55 Calm 9 Clear CLR 59 55     88%     30.07        
Jun 19 06:35 Calm 9 Clear CLR 59 55     88%     30.07        
Jun 19 06:15 Calm 9 Clear CLR 57 55     94%     30.06        
Jun 19 05:55 Calm 8 Clear CLR 55 55     100%     30.06        
Jun 19 05:35 Calm 9 Clear CLR 55 54     94%     30.05        
Jun 19 05:10 Calm 9 Clear CLR 57 54     88%     30.05        
Jun 19 04:55 SSW 5   Clear   57 55     94%     30.05        
Jun 19 04:35 SSW 7 10 Clear CLR 57 54     88%     30.04        
Jun 19 04:15 Calm 10 Clear CLR 55 54     94%     30.04        
Jun 19 03:55 Calm 10 Clear CLR 57 55     94%     30.04        
Jun 19 03:35 Calm 10 Clear   57 54     88%     30.03        
Jun 19 03:15 Calm 10 Clear   59 54     82%     30.03        
Jun 19 02:55 Calm 10 Clear   59 54     82%     30.02        
Jun 19 02:35 SSW 5 10 Clear CLR 59 55     88%     30.02        
Jun 19 02:15 SSW 3 10 Clear CLR 59 55     88%     30.02        
Jun 19 01:55 SSW 5 10 Clear CLR 59 55     88%     30.02        
Jun 19 01:35 SSW 3 10 Clear CLR 59 55     88%     30.01        
Jun 19 01:15 Calm 10 Clear CLR 59 55     88%     30.01        
Jun 19 00:55 SSE 5 10 Clear CLR 59 54     82%     30.01        
Jun 19 00:35 SE 3 10 Clear CLR 61 54     77%     30.01        
Jun 19 00:15 Calm 10 Clear CLR 61 54     77%     30.01        
Jun 18 23:55 Calm 10 Clear CLR 61 54     77%     30        
Jun 18 23:35 SE 3 10 Clear CLR 63 54     72%     30        
Jun 18 23:15 S 6 10 Clear CLR 64 54     68%     29.99        
Jun 18 22:55 S 8 10 Clear CLR 64 54     68%     29.98        
Jun 18 22:35 S 7 10 Clear CLR 63 54     72%     29.98        
Jun 18 22:15 S 6 10 Clear CLR 64 54     68%     29.97        
Jun 18 21:55 S 8 10 Clear CLR 64 54     68%     29.96        
Jun 18 21:35 S 6 10 Clear CLR 66 54     64%     29.96        
Jun 18 21:15 S 6 10 Clear CLR 68 52     56%     29.95        
Jun 18 20:55 SSE 8 10 Clear CLR 70 52     53%     29.94        
Jun 18 20:35 SSE 8 10 Clear CLR 73 54     50%   73 29.93        
Jun 18 20:15 S 6 10 Clear CLR 73 54     50%   73 29.93        
Jun 18 19:55 SSW 7 9 Clear CLR 75 52     44%   74 29.93        
Jun 18 19:35 SSW 7 10 Clear CLR 75 55     50%   75 29.93        
Jun 18 19:15 SW 6 10 Clear CLR 77 55     47%   77 29.92        
Jun 18 18:55 SW 6 9 Clear CLR 79 55     45%   78 29.92        
Jun 18 18:35 SW 7 10 Clear CLR 81 54     39%   80 29.91        
Jun 18 18:15 SSW 7 9 Clear CLR 82 57     42%   82 29.91        
Jun 18 17:55 Calm 9 Clear CLR 84 59     43%   84 29.91        
Jun 18 17:35 3 9 Clear CLR 84 54     35%   83 29.91        
Jun 18 17:15 3 9 Clear CLR 84 55     37%   83 29.9        
Jun 18 16:55 W 6 9 Clear CLR 84 55     37%   83 29.91        
Jun 18 16:35 W 6 10 Clear CLR 84 57     40%   83 29.91        
May 15 01:55 Calm 10 Clear CLR 52 50     94%     29.88        
May 14 22:35 Calm 10 Clear CLR 59 54     82%     29.86        
May 14 17:55 W 7 10 Clear CLR 77 55     47%   77 29.85        
May 14 08:55 Calm 10 Clear CLR 68 52     56%     29.97        
May 14 05:15 Calm 10 Clear CLR 54 50     88%     29.95        
May 14 01:15 Calm 10 Clear CLR 57 52     82%     29.92        
May 13 23:15 WNW 5 10 Clear CLR 55 50     82%     29.91        
May 13 12:35 WNW 10 10 Clear CLR 70 55     60%     29.96        
May 13 02:15 Calm 10 Clear CLR 52 50     94%     29.98        
May 12 21:15 Calm 10 Clear CLR 59 50     72%     29.97        
May 12 19:35 WNW 7 10 Clear CLR 64 52     64%     29.97        
May 12 19:15 W 7 10 Clear CLR 68 50     53%     29.97        
May 12 13:35 WNW 11 9 Clear CLR 63 54     72%     30.09        
May 12 12:55 WNW 11 10 Clear CLR 63 54     72%     30.1        
May 12 11:55 NW 11 10 Clear CLR 63 55     77%     30.13        
May 12 08:35 WNW 8 10 Clear CLR 55 52     88%     30.19        
May 12 08:15 WNW 3 10 Clear CLR 55 52     88%     30.19        
May 12 00:35 Calm 10 Clear CLR 48 46     93%     30.21        
May 11 21:55 Calm 10 Clear CLR 50 46     87%     30.21        
Jun 12 00:55 Calm 10 Clear CLR 52 48     87%     29.98        
Jun 11 20:15 SW 3 9 Clear CLR 61 50     68%     29.99        
Jun 11 17:15 WNW 9 9 Clear CLR 68 48     49%     29.99        
Jun 11 08:15 SSE 3 9 Cloudy FEW016 BKN049 OVC060 55 50     82%     30.04        
Jun 11 04:55 SSE 5 10 Cloudy OVC012 52 50     94%     30.01        
Jun 10 12:35 SSW 9 10 Mostly Cloudy FEW026 SCT034 BKN046 59 46     63%     29.86        
Jun 10 09:15 3 10 Cloudy BKN021 OVC026 55 46     72%     29.87        
Jun 10 06:35 SSE 5 10 Cloudy BKN022 BKN028 OVC055 52 48     87%     29.85        
Jun 10 06:15 SSE 5 10 Cloudy BKN021 BKN029 OVC055 52 48     87%     29.85        
Jun 10 03:15 SSE 7 10 Cloudy FEW029 OVC041 52 48     87%     29.85        
Jun 09 22:55 SE 6 10 Cloudy FEW027 OVC060 54 48     82%     29.85        
Jun 09 13:35 S 7 9 Mostly Cloudy SCT040 BKN065 63 48     59%     29.85        
Jun 09 10:15 SE 8 4 Haze BKN031 BKN040 54 48     82%     29.9        
Jun 08 17:55 Calm 4 Haze FEW029 FEW037 BKN044 54 50     88%     29.89   0    
Jun 08 14:35 SSW 6 1.75 Fog/Mist FEW017 BKN025 OVC031 55 54     94%     29.79        
Notice The following observation data may not be complete
Jun 08 10:35   7 Clear CLR          %              
Jun 08 10:15 SE 10 5 Fog/Mist CLR 59 57     94%     29.65        
Jun 08 06:15 Calm 4 Fog/Mist OVC039 54 54     100%     29.62        
Jun 08 05:35 Calm 4 Fog/Mist BKN043 BKN048 OVC060 54 54     100%     29.63        
Jun 08 02:35 S 6 5 Haze FEW034 SCT044 BKN060 55 50     82%     29.71        
Notice The following observation data may not be complete
Jun 07 17:15   8 Clear CLR          %              
Notice The following observation data may not be complete
Jun 07 12:35   9 Clear CLR          %              
Jun 07 11:55 WNW 6 8 Clear CLR 73 54     50%   73 29.74        
Jun 07 09:35 Calm 9 Clear   64 48     56%     29.8        
Jun 05 23:55 Calm 10 Clear CLR 52 45     76%     30.07        
Jun 05 22:55 Calm 10 Clear CLR 52 45     76%     30.07        
Jun 05 18:35 WNW 9 10 Clear CLR 64 43     45%     30.06